Weather History for Cooperstown, ND

Change the Weather History Date:

Thursday, October 25, 2012

  Actual Average (KJMS) Record (KJMS)
Temperature  
Mean Temperature 32 °F 40 °F  
Max Temperature 35 °F 51 °F 82 °F (1989)
Min Temperature 30 °F 29 °F 5 °F (1919)
Degree Days  
Heating Degree Days 32 25  
Month to date heating degree days 489  
Since 1 July heating degree days 807  
Cooling Degree Days 0 0  
Month to date cooling degree days 0  
Year to date cooling degree days 445  
Moisture  
Dew Point 27 °F    
Average Humidity 78    
Maximum Humidity 93    
Minimum Humidity 60    
Precipitation  
Precipitation 0.00 in 0.05 in 0.54 in (2010)
Month to date precipitation 1.32  
Year to date precipitation 17.51  
Sea Level Pressure  
Sea Level Pressure 30.02 in    
Wind  
Wind Speed 17 mph (NW)    
Max Wind Speed 30 mph    
Max Gust Speed 40 mph    
Visibility 10 miles    
Events Rain    
T = Trace of Precipitation, MM = Missing Value Source: NWS Daily Summary

Daily Weather History Graph

Daily Weather History Graph

Search for Another Location

Airport:

Trip Planner

Search our weather history database for the weather conditions in past years. The results will help you decide how hot, cold, wet, or windy it might be!

Date:

Astronomy

Oct. 25, 2012 Rise Set
Actual Time 8:06 AM CDT 6:25 PM CDT
Civil Twilight 7:34 AM CDT 6:57 PM CDT
Nautical Twilight 6:58 AM CDT 7:33 PM CDT
Astronomical Twilight 6:23 AM CDT 8:08 PM CDT
Moon 4:25 PM CDT (10/25) 3:49 AM CDT (10/25)
Length of Visible Light 11h 22m
Length of Day
10h 19m
Waxing Gibbous, 84% of the Moon is Illuminated
Oct 25
Waxing Gibbous
Oct 29
Full
Nov 6
Last Quarter
Nov 13
New
Nov 20
First Quarter

Hourly Weather History & Observations

Time (CDT) Temp. Windchill Dew Point Humidity Pressure Visibility Wind Dir Wind Speed Gust Speed Precip Events Conditions
12:15 AM 32.0 °F 23.0 °F 28.4 °F 87% 29.99 in 10.0 mi NW 11.5 mph - N/A   Clear
12:35 AM 30.2 °F 21.3 °F 28.4 °F 93% 29.99 in 10.0 mi NW 10.4 mph - N/A   Clear
12:55 AM 30.2 °F 20.8 °F 28.4 °F 93% 29.99 in 10.0 mi NW 11.5 mph - N/A   Clear
1:15 AM 30.2 °F 21.3 °F 28.4 °F 93% 29.99 in 10.0 mi NW 10.4 mph - N/A   Clear
1:35 AM 30.2 °F 19.8 °F 28.4 °F 93% 29.98 in 10.0 mi NW 13.8 mph 18.4 mph N/A   Clear
1:55 AM 32.0 °F 22.1 °F 28.4 °F 87% 29.97 in 10.0 mi NW 13.8 mph 20.7 mph N/A   Mostly Cloudy
2:35 AM 32.0 °F 22.5 °F 28.4 °F 87% 29.98 in 10.0 mi NW 12.7 mph 19.6 mph N/A   Clear
2:55 AM 32.0 °F 22.5 °F 28.4 °F 87% 29.98 in 10.0 mi NW 12.7 mph - N/A   Partly Cloudy
3:15 AM 32.0 °F 22.5 °F 28.4 °F 87% 29.96 in 10.0 mi NW 12.7 mph - N/A   Mostly Cloudy
3:35 AM 32.0 °F 23.6 °F 28.4 °F 87% 29.97 in 10.0 mi NW 10.4 mph - N/A   Overcast
3:55 AM 32.0 °F 23.6 °F 28.4 °F 87% 29.96 in 10.0 mi NW 10.4 mph - N/A   Scattered Clouds
4:15 AM 32.0 °F 24.2 °F 28.4 °F 87% 29.97 in 10.0 mi WNW 9.2 mph - N/A   Mostly Cloudy
4:35 AM 32.0 °F 23.0 °F 28.4 °F 87% 29.98 in 10.0 mi NW 11.5 mph - N/A   Overcast
4:55 AM 32.0 °F 23.6 °F 28.4 °F 87% 29.98 in 10.0 mi NW 10.4 mph - N/A   Overcast
5:15 AM 32.0 °F 22.5 °F 28.4 °F 87% 29.99 in 10.0 mi NW 12.7 mph 17.3 mph N/A   Overcast
5:35 AM 32.0 °F 23.0 °F 28.4 °F 87% 30.01 in 10.0 mi NW 11.5 mph - N/A   Overcast
5:55 AM 32.0 °F 23.6 °F 28.4 °F 87% 30.00 in 10.0 mi NW 10.4 mph - N/A   Overcast
6:35 AM 32.0 °F 23.6 °F 28.4 °F 87% 30.00 in 10.0 mi NW 10.4 mph - N/A   Overcast
6:55 AM 32.0 °F 22.5 °F 28.4 °F 87% 30.00 in 10.0 mi NW 12.7 mph - N/A   Overcast
7:15 AM 32.0 °F 23.0 °F 28.4 °F 87% 30.00 in 10.0 mi NW 11.5 mph - N/A   Overcast
7:35 AM 32.0 °F 22.1 °F 28.4 °F 87% 30.00 in 10.0 mi NW 13.8 mph 19.6 mph N/A   Overcast
7:55 AM 32.0 °F 21.6 °F 28.4 °F 87% 30.00 in 10.0 mi NW 15.0 mph 20.7 mph N/A   Overcast
8:35 AM 32.0 °F 20.8 °F 28.4 °F 87% 29.99 in 10.0 mi NW 17.3 mph 23.0 mph N/A   Overcast
8:55 AM 32.0 °F 20.5 °F 28.4 °F 87% 29.99 in 10.0 mi NW 18.4 mph 25.3 mph N/A   Overcast
9:15 AM 32.0 °F 19.5 °F 26.6 °F 80% 29.99 in 10.0 mi NW 21.9 mph 28.8 mph N/A   Overcast
9:35 AM 32.0 °F 19.5 °F 26.6 °F 80% 29.98 in 10.0 mi NW 21.9 mph 29.9 mph N/A   Overcast
9:55 AM 32.0 °F 19.2 °F 26.6 °F 80% 29.98 in 10.0 mi NW 23.0 mph 29.9 mph N/A   Overcast
10:35 AM 32.0 °F 17.6 °F 24.8 °F 75% 29.98 in 10.0 mi NW 29.9 mph 35.7 mph N/A   Overcast
10:55 AM 32.0 °F 18.4 °F 26.6 °F 80% 29.99 in 10.0 mi NW 26.5 mph 34.5 mph N/A   Overcast
11:15 AM 33.8 °F 21.6 °F 26.6 °F 75% 29.99 in 10.0 mi NW 23.0 mph 31.1 mph N/A   Overcast
11:35 AM 33.8 °F 22.2 °F 26.6 °F 75% 29.99 in 10.0 mi NW 20.7 mph 33.4 mph N/A   Overcast
11:55 AM 33.8 °F 20.5 °F 24.8 °F 70% 29.98 in 10.0 mi NW 27.6 mph 40.3 mph N/A   Overcast
12:15 PM 35.6 °F 24.0 °F 24.8 °F 65% 29.98 in 10.0 mi NW 23.0 mph 35.7 mph N/A   Overcast
12:35 PM 35.6 °F 23.7 °F 26.6 °F 70% 29.98 in 10.0 mi NW 24.2 mph 33.4 mph N/A   Overcast
1:15 PM 35.6 °F 23.0 °F 24.8 °F 65% 29.98 in 10.0 mi NW 27.6 mph 35.7 mph N/A   Mostly Cloudy
1:55 PM 35.6 °F 22.7 °F 24.8 °F 65% 29.97 in 10.0 mi NW 28.8 mph 38.0 mph N/A   Mostly Cloudy
2:15 PM 35.6 °F 23.0 °F 24.8 °F 65% 29.97 in 10.0 mi NW 27.6 mph 36.8 mph N/A   Overcast
2:35 PM 35.6 °F 23.0 °F 24.8 °F 65% 29.98 in 10.0 mi NW 27.6 mph 39.1 mph N/A   Overcast
2:55 PM 35.6 °F 23.0 °F 24.8 °F 65% 29.98 in 10.0 mi NW 27.6 mph 36.8 mph N/A   Overcast
3:15 PM 35.6 °F 23.7 °F 23.0 °F 60% 29.98 in 10.0 mi NW 24.2 mph 39.1 mph N/A   Overcast
3:35 PM 35.6 °F 23.4 °F 24.8 °F 65% 29.99 in 10.0 mi NW 25.3 mph 35.7 mph N/A   Overcast
3:55 PM 35.6 °F 23.0 °F 24.8 °F 65% 29.99 in 10.0 mi NW 27.6 mph 36.8 mph N/A   Overcast
4:15 PM 35.6 °F 23.7 °F 24.8 °F 65% 30.00 in 10.0 mi NW 24.2 mph 35.7 mph N/A   Overcast
4:35 PM 35.6 °F 24.0 °F 26.6 °F 70% 30.01 in 10.0 mi WNW 23.0 mph 28.8 mph N/A   Overcast
4:55 PM 35.6 °F 23.2 °F 24.8 °F 65% 30.01 in 10.0 mi WNW 26.5 mph 34.5 mph N/A   Overcast
5:35 PM 35.6 °F 23.0 °F 24.8 °F 65% 30.03 in 10.0 mi NW 27.6 mph 34.5 mph N/A   Overcast
5:55 PM 35.6 °F 24.2 °F 24.8 °F 65% 30.04 in 10.0 mi WNW 21.9 mph 32.2 mph N/A   Overcast
6:15 PM 33.8 °F 21.3 °F 24.8 °F 70% 30.05 in 10.0 mi WNW 24.2 mph 31.1 mph N/A   Overcast
6:35 PM 33.8 °F 21.6 °F 24.8 °F 70% 30.05 in 10.0 mi WNW 23.0 mph 31.1 mph N/A   Overcast
6:55 PM 33.8 °F 21.9 °F 24.8 °F 70% 30.06 in 10.0 mi WNW 21.9 mph 32.2 mph N/A   Overcast
7:15 PM 33.8 °F 20.1 °F 24.8 °F 70% 30.06 in 10.0 mi NW 29.9 mph - N/A   Overcast
7:35 PM 33.8 °F 21.9 °F 26.6 °F 75% 30.07 in 10.0 mi WNW 21.9 mph 33.4 mph N/A   Overcast
7:55 PM 33.8 °F 20.5 °F 26.6 °F 75% 30.08 in 10.0 mi WNW 27.6 mph 34.5 mph N/A   Overcast
8:15 PM 32.0 °F 19.5 °F 26.6 °F 80% 30.08 in 10.0 mi WNW 21.9 mph 32.2 mph N/A   Overcast
8:35 PM 32.0 °F 19.8 °F 26.6 °F 80% 30.09 in 10.0 mi WNW 20.7 mph 32.2 mph N/A   Overcast
8:55 PM 32.0 °F 19.5 °F 26.6 °F 80% 30.09 in 10.0 mi WNW 21.9 mph 29.9 mph N/A   Overcast
9:15 PM 32.0 °F 19.2 °F 26.6 °F 80% 30.10 in 10.0 mi WNW 23.0 mph 33.4 mph N/A   Overcast
9:35 PM 32.0 °F 18.6 °F 26.6 °F 80% 30.10 in 10.0 mi WNW 25.3 mph 32.2 mph N/A   Overcast
9:55 PM 32.0 °F 20.1 °F 26.6 °F 80% 30.11 in 10.0 mi WNW 19.6 mph 33.4 mph N/A   Mostly Cloudy
10:15 PM 32.0 °F 20.5 °F 24.8 °F 75% 30.11 in 10.0 mi WNW 18.4 mph 29.9 mph N/A   Overcast
10:55 PM 32.0 °F 19.8 °F 24.8 °F 75% 30.12 in 10.0 mi WNW 20.7 mph 27.6 mph N/A   Overcast
11:15 PM 32.0 °F 19.5 °F 24.8 °F 75% 30.12 in 10.0 mi WNW 21.9 mph 28.8 mph N/A   Overcast
11:35 PM 32.0 °F 20.1 °F 26.6 °F 80% 30.12 in 10.0 mi WNW 19.6 mph 27.6 mph N/A   Overcast
11:55 PM 32.0 °F 19.8 °F 26.6 °F 80% 30.13 in 10.0 mi WNW 20.7 mph 24.2 mph N/A Rain Light Rain